H1 CPF 2 NER 2023 12 20 9 354 01 glonass145 H2 2213001 9145 54031 2023 12 20 0 0 0 2023 12 23 23 45 0 900 1 1 0 0 0 1 H9 10 0 60298 0.00000 0 -6919978.367 13784662.216 -20299573.869 10 0 60298 900.00000 0 -7474927.617 11254216.397 -21621334.010 10 0 60298 1800.00000 0 -8254541.908 8640727.785 -22522570.249 10 0 60298 2700.00000 0 -9253407.014 6013050.047 -22985819.503 10 0 60298 3600.00000 0 -10453826.553 3438719.575 -23002146.415 10 0 60298 4500.00000 0 -11826436.527 981354.775 -22571311.463 10 0 60298 5400.00000 0 -13331326.861 -1301769.391 -21701769.568 10 0 60298 6300.00000 0 -14919623.071 -3361871.435 -20410499.703 10 0 60298 7200.00000 0 -16535461.802 -5160449.490 -18722669.191 10 0 60298 8100.00000 0 -18118277.544 -6670630.553 -16671139.472 10 0 60298 9000.00000 0 -19605304.753 -7878028.105 -14295823.122 10 0 60298 9900.00000 0 -20934190.531 -8781074.040 -11642904.710 10 0 60298 10800.00000 0 -22045608.376 -9390812.820 -8763940.707 10 0 60298 11700.00000 0 -22885763.446 -9730168.308 -5714855.978 10 0 60298 12600.00000 0 -23408684.238 -9832715.730 -2554856.504 10 0 60298 13500.00000 0 -23578204.589 -9741011.971 654720.452 10 0 60298 14400.00000 0 -23369552.868 -9504555.824 3851596.258 10 0 60298 15300.00000 0 -22770481.717 -9177465.178 6973757.648 10 0 60298 16200.00000 0 -21781890.985 -8815969.920 9960656.811 10 0 60298 17100.00000 0 -20417917.707 -8475826.787 12754381.626 10 0 60298 18000.00000 0 -18705489.245 -8209765.497 15300773.516 10 0 60298 18900.00000 0 -16683358.044 -8065073.919 17550471.656 10 0 60298 19800.00000 0 -14400657.878 -8081424.026 19459863.840 10 0 60298 20700.00000 0 -11915041.260 -8289030.120 20991926.213 10 0 60298 21600.00000 0 -9290474.783 -8707216.859 22116936.332 10 0 60298 22500.00000 0 -6594783.135 -9343457.474 22813046.415 10 0 60298 23400.00000 0 -3897042.786 -10192923.011 23066706.203 10 0 60298 24300.00000 0 -1264932.353 -11238562.247 22872927.566 10 0 60298 25200.00000 0 1237851.558 -12451709.930 22235385.770 10 0 60298 26100.00000 0 3554006.908 -13793199.070 21166355.174 10 0 60298 27000.00000 0 5634767.990 -15214932.032 19686479.985 10 0 60298 27900.00000 0 7441688.284 -16661845.950 17824383.706 10 0 60298 28800.00000 0 8947990.817 -18074191.288 15616123.824 10 0 60298 29700.00000 0 10139430.279 -19390028.960 13104501.262 10 0 60298 30600.00000 0 11014631.281 -20547841.809 10338236.989 10 0 60298 31500.00000 0 11584888.904 -21489150.907 7371030.986 10 0 60298 32400.00000 0 11873440.253 -22161026.443 4260521.325 10 0 60298 33300.00000 0 11914238.053 -22518386.870 1067163.375 10 0 60298 34200.00000 0 11750278.473 -22525988.529 -2146948.857 10 0 60298 35100.00000 0 11431554.418 -22160020.728 -5319295.853 10 0 60298 36000.00000 0 11012721.612 -21409237.796 -8388155.834 10 0 60298 36900.00000 0 10550577.156 -20275579.137 -11293813.371 10 0 60298 37800.00000 0 10101458.302 -18774250.080 -13979728.922 10 0 60298 38700.00000 0 9718672.608 -16933259.169 -16393645.649 10 0 60298 39600.00000 0 9450069.230 -14792430.687 -18488611.258 10 0 60298 40500.00000 0 9335854.964 -12401933.376 -20223894.516 10 0 60298 41400.00000 0 9406748.042 -9820386.730 -21565778.464 10 0 60298 42300.00000 0 9682548.185 -7112623.968 -22488214.932 10 0 60298 43200.00000 0 10171183.553 -4347204.997 -22973327.943 10 0 60298 44100.00000 0 10868274.946 -1593782.948 -23011756.704 10 0 60298 45000.00000 0 11757235.610 1079566.259 -22602832.001 10 0 60298 45900.00000 0 12809902.445 3608940.585 -21754583.164 10 0 60298 46800.00000 0 13987671.951 5937027.486 -20483575.899 10 0 60298 47700.00000 0 15243093.087 8015238.801 -18814584.556 10 0 60298 48600.00000 0 16521850.009 9805477.268 -16780105.468 10 0 60298 49500.00000 0 17765051.327 11281462.467 -14419720.972 10 0 60298 50400.00000 0 18911729.604 12429562.428 -11779326.620 10 0 60298 51300.00000 0 19901446.025 13249097.891 -8910236.633 10 0 60298 52200.00000 0 20676890.715 13752108.250 -5868185.069 10 0 60298 53100.00000 0 21186369.339 13962590.677 -2712242.217 10 0 60298 54000.00000 0 21386071.377 13915246.042 496332.612 10 0 60298 54900.00000 0 21242024.693 13653785.743 3695279.494 10 0 60298 55800.00000 0 20731654.137 13228871.949 6822544.296 10 0 60298 56700.00000 0 19844878.598 12695778.908 9817479.584 10 0 60298 57600.00000 0 18584700.275 12111874.538 12622016.857 10 0 60298 58500.00000 0 16967261.165 11534028.755 15181787.501 10 0 60298 59400.00000 0 15021363.998 11016057.853 17447171.129 10 0 60298 60300.00000 0 12787477.036 10606312.474 19374251.535 10 0 60298 61200.00000 0 10316263.571 10345510.486 20925662.328 10 0 60298 62100.00000 0 7666696.425 10264905.692 22071306.612 10 0 60298 63000.00000 0 4903834.827 10384869.188 22788937.405 10 0 60298 63900.00000 0 2096354.835 10713943.003 23064588.118 10 0 60298 64800.00000 0 -686065.463 11248405.967 22892845.086 10 0 60298 65700.00000 0 -3375398.823 11972370.603 22276956.925 10 0 60298 66600.00000 0 -5907850.912 12858407.731 21228778.341 10 0 60298 67500.00000 0 -8226265.567 13868673.598 19768548.937 10 0 60298 68400.00000 0 -10282254.287 14956493.337 17924510.444 10 0 60298 69300.00000 0 -12037962.108 16068335.365 15732368.838 10 0 60298 70200.00000 0 -13467396.852 17146094.720 13234610.705 10 0 60298 71100.00000 0 -14557266.678 18129590.029 10479686.093 10 0 60298 72000.00000 0 -15307291.128 18959169.345 7521072.923 10 0 60298 72900.00000 0 -15729972.889 19578315.006 4416240.580 10 0 60298 73800.00000 0 -15849840.111 19936137.234 1225532.587 10 0 60298 74700.00000 0 -15702191.535 19989650.406 -1989009.730 10 0 60298 75600.00000 0 -15331397.832 19705734.795 -5164859.225 10 0 60298 76500.00000 0 -14788831.556 19062699.675 -8240226.265 10 0 60298 77400.00000 0 -14130513.995 18051380.421 -11155268.663 10 0 60298 78300.00000 0 -13414579.340 16675722.039 -13853263.713 10 0 60298 79200.00000 0 -12698664.405 14952823.307 -16281718.670 10 0 60298 80100.00000 0 -12037335.175 12912438.685 -18393397.296 10 0 60298 81000.00000 0 -11479659.791 10595958.121 -20147242.057 10 0 60298 81900.00000 0 -11067031.093 8054906.938 -21509173.836 10 0 60298 82800.00000 0 -10831331.065 5349028.201 -22452753.620 10 0 60298 83700.00000 0 -10793514.745 2544027.390 -22959693.630 10 0 60298 84600.00000 0 -10962673.258 -290926.818 -23020208.367 10 0 60298 85500.00000 0 -11335615.182 -3085841.783 -22633199.298 10 0 60299 0.00000 0 -11896983.488 -5772570.479 -21806270.222 10 0 60299 900.00000 0 -12619903.006 -8287402.365 -20555572.996 10 0 60299 1800.00000 0 -13467130.011 -10573464.935 -18905488.204 10 0 60299 2700.00000 0 -14392656.095 -12582841.792 -16888145.821 10 0 60299 3600.00000 0 -15343697.840 -14278316.633 -14542796.341 10 0 60299 4500.00000 0 -16262988.494 -15634673.256 -11915044.367 10 0 60299 5400.00000 0 -17091274.926 -16639498.580 -9055959.687 10 0 60299 6300.00000 0 -17769914.514 -17293456.747 -6021083.153 10 0 60299 7200.00000 0 -18243462.476 -17610024.418 -2869346.791 10 0 60299 8100.00000 0 -18462140.475 -17614699.932 338070.751 10 0 60299 9000.00000 0 -18384082.465 -17343721.023 3538931.096 10 0 60299 9900.00000 0 -17977262.994 -16842346.208 6671142.165 10 0 60299 10800.00000 0 -17221026.691 -16162773.209 9673959.894 10 0 60299 11700.00000 0 -16107154.322 -15361782.729 12489162.385 10 0 60299 12600.00000 0 -14640420.299 -14498207.227 15062173.891 10 0 60299 13500.00000 0 -12838617.726 -13630331.381 17343117.209 10 0 60299 14400.00000 0 -10732049.265 -12813333.493 19287774.627 10 0 60299 15300.00000 0 -8362504.200 -12096875.164 20858439.389 10 0 60299 16200.00000 0 -5781763.330 -11522940.100 22024641.923 10 0 60299 17100.00000 0 -3049692.692 -11124012.401 22763737.424 10 0 60299 18000.00000 0 -232004.041 -10921670.486 23061343.935 10 0 60299 18900.00000 0 2602226.328 -10925655.438 22911622.809 10 0 60299 19800.00000 0 5383178.922 -11133452.946 22317396.186 10 0 60299 20700.00000 0 8042945.109 -11530406.669 21290098.959 10 0 60299 21600.00000 0 10518105.023 -12090358.836 19849565.618 10 0 60299 22500.00000 0 12752123.281 -12776791.894 18023655.295 10 0 60299 23400.00000 0 14697463.700 -13544424.078 15847721.291 10 0 60299 24300.00000 0 16317335.526 -14341192.575 13363934.320 10 0 60299 25200.00000 0 17586998.685 -15110541.459 10620471.586 10 0 60299 26100.00000 0 18494573.677 -15793918.341 7670586.635 10 0 60299 27000.00000 0 19041322.285 -16333374.495 4571577.462 10 0 60299 27900.00000 0 19241387.431 -16674158.323 1383672.715 10 0 60299 28800.00000 0 19121003.262 -16767191.914 -1831142.230 10 0 60299 29700.00000 0 18717209.038 -16571324.973 -5010335.995 10 0 60299 30600.00000 0 18076121.532 -16055269.594 -8092054.523 10 0 60299 31500.00000 0 17250839.477 -15199132.686 -11016332.198 10 0 60299 32400.00000 0 16299069.379 -13995479.910 -13726266.316 10 0 60299 33300.00000 0 15280573.799 -12449884.822 -16169131.147 10 0 60299 34200.00000 0 14254550.755 -10580938.867 -18297409.131 10 0 60299 35100.00000 0 13277055.656 -8419720.721 -20069718.708 10 0 60299 36000.00000 0 12398575.117 -6008746.388 -21451620.479 10 0 60299 36900.00000 0 11661855.326 -3400443.394 -22416286.046 10 0 60299 37800.00000 0 11100076.559 -655212.366 -22945016.822 10 0 60299 38700.00000 0 10735450.505 2160843.489 -23027603.148 10 0 60299 39600.00000 0 10578299.024 4978426.725 -22662517.259 10 0 60299 40500.00000 0 10626652.480 7727687.749 -21856936.909 10 0 60299 41400.00000 0 10866383.779 10340891.230 -20626599.678 10 0 60299 42300.00000 0 11271871.707 12754996.488 -18995491.197 10 0 60299 43200.00000 0 11807164.870 14914045.276 -16995373.662 10 0 60299 44100.00000 0 12427596.515 16771258.506 -14665163.968 10 0 60299 45000.00000 0 13081781.599 18290755.630 -12050173.699 10 0 60299 45900.00000 0 13713911.452 19448826.221 -9201225.827 10 0 60299 46800.00000 0 14266248.883 20234702.005 -6173665.319 10 0 60299 47700.00000 0 14681718.164 20650798.465 -3026283.022 10 0 60299 48600.00000 0 14906480.428 20712417.341 179826.172 10 0 60299 49500.00000 0 14892385.610 20446923.863 3382448.612 10 0 60299 50400.00000 0 14599197.342 19892434.500 6519457.442 10 0 60299 51300.00000 0 13996496.819 19096071.410 9530015.017 10 0 60299 52200.00000 0 13065185.163 18111857.726 12355748.908 10 0 60299 53100.00000 0 11798520.692 16998342.702 14941878.856 10 0 60299 54000.00000 0 10202647.008 15816056.741 17238273.178 10 0 60299 54900.00000 0 8296588.995 14624903.141 19200414.687 10 0 60299 55800.00000 0 6111716.009 13481595.836 20790257.992 10 0 60299 56700.00000 0 3690693.526 12437250.117 21976962.261 10 0 60299 57600.00000 0 1085965.631 11535226.826 22737485.948 10 0 60299 58500.00000 0 -1642169.917 10809319.788 23057032.463 10 0 60299 59400.00000 0 -4427815.578 10282361.924 22929338.549 10 0 60299 60300.00000 0 -7201964.858 9965308.099 22356799.838 10 0 60299 61200.00000 0 -9895128.128 9856832.996 21350430.950 10 0 60299 62100.00000 0 -12439985.785 9943460.979 19929660.377 10 0 60299 63000.00000 0 -14773959.694 10200222.767 18121963.327 10 0 60299 63900.00000 0 -16841596.857 10591811.803 15962338.706 10 0 60299 64800.00000 0 -18596666.656 11074192.197 13492639.289 10 0 60299 65700.00000 0 -20003884.553 11596591.010 10760767.101 10 0 60299 66600.00000 0 -21040190.311 12103791.192 7819748.765 10 0 60299 67500.00000 0 -21695527.183 12538628.476 4726708.231 10 0 60299 68400.00000 0 -21973089.303 12844586.463 1541756.532 10 0 60299 69300.00000 0 -21889026.778 12968379.582 -1673179.667 10 0 60299 70200.00000 0 -21471620.942 12862413.718 -4855567.541 10 0 60299 71100.00000 0 -20759964.721 12487019.205 -7943491.366 10 0 60299 72000.00000 0 -19802204.132 11812360.326 -10876864.827 10 0 60299 72900.00000 0 -18653415.691 10819939.106 -13598607.853 10 0 60299 73800.00000 0 -17373209.988 9503628.419 -16055764.205 10 0 60299 74700.00000 0 -16023163.242 7870189.421 -18200537.264 10 0 60299 75600.00000 0 -14664185.891 5939250.272 -19991223.411 10 0 60299 76500.00000 0 -13353939.595 3742745.978 -21393024.603 10 0 60299 77400.00000 0 -12144411.812 1323841.954 -22378724.321 10 0 60299 78300.00000 0 -11079750.047 -1264614.301 -22929214.049 10 0 60299 79200.00000 0 -10194446.581 -3962049.300 -23033860.452 10 0 60299 80100.00000 0 -9511949.471 -6702446.249 -22690706.634 10 0 60299 81000.00000 0 -9043757.379 -9416859.603 -21906504.121 10 0 60299 81900.00000 0 -8789035.273 -12036057.247 -20696575.421 10 0 60299 82800.00000 0 -8734766.048 -14493180.786 -19084510.275 10 0 60299 83700.00000 0 -8856430.572 -16726313.811 -17101701.796 10 0 60299 84600.00000 0 -9119186.410 -18680851.946 -14786731.703 10 0 60299 85500.00000 0 -9479494.626 -20311576.715 -12184616.766 10 0 60300 0.00000 0 -9887125.172 -21584347.623 -9345931.426 10 0 60300 900.00000 0 -10287455.811 -22477343.504 -6325822.144 10 0 60300 1800.00000 0 -10623966.436 -22981800.769 -3182936.614 10 0 60300 2700.00000 0 -10840823.768 -23102221.120 21716.344 10 0 60300 3600.00000 0 -10885446.449 -22856039.442 3225950.212 10 0 60300 4500.00000 0 -10710942.127 -22272767.652 6367605.859 10 0 60300 5400.00000 0 -10278313.460 -21392651.295 9385754.653 10 0 60300 6300.00000 0 -9558339.678 -20264896.050 12221876.279 10 0 60300 7200.00000 0 -8533054.144 -18945539.156 14820988.605 10 0 60300 8100.00000 0 -7196755.224 -17495055.345 17132708.043 10 0 60300 9000.00000 0 -5556507.367 -15975797.696 19112220.356 10 0 60300 9900.00000 0 -3632110.491 -14449380.440 20721143.706 10 0 60300 10800.00000 0 -1455537.864 -12974112.817 21928267.905 10 0 60300 11700.00000 0 930135.406 -11602590.785 22710156.228 10 0 60300 12600.00000 0 3472270.071 -10379546.589 23051598.660 10 0 60300 13500.00000 0 6110604.252 -9340045.406 22945908.173 10 0 60300 14400.00000 0 8779519.702 -8508103.829 22395054.387 10 0 60300 15300.00000 0 11410540.211 -7895787.487 21409631.805 10 0 60300 16200.00000 0 13934959.842 -7502825.278 20008662.748 10 0 60300 17100.00000 0 16286492.982 -7316756.242 18219238.017 10 0 60300 18000.00000 0 18403836.936 -7313602.986 16076001.280 10 0 60300 18900.00000 0 20233040.970 -7459043.549 13620486.183 10 0 60300 19800.00000 0 21729583.328 -7710032.607 10900317.967 10 0 60300 20700.00000 0 22860069.474 -8016803.838 7968294.326 10 0 60300 21600.00000 0 23603480.321 -8325168.949 4881362.716 10 0 60300 22500.00000 0 23951917.806 -8579015.973 1699513.726 10 0 60300 23400.00000 0 23910816.197 -8722900.623 -1515387.853 10 0 60300 24300.00000 0 23498609.977 -8704620.202 -4700811.121 10 0 60300 25200.00000 0 22745872.224 -8477660.008 -7794782.167 10 0 60300 26100.00000 0 21693959.841 -8003407.331 -10737097.420 10 0 60300 27000.00000 0 20393223.071 -7253037.919 -13470502.754 10 0 60300 27900.00000 0 18900855.186 -6208993.676 -15941814.499 10 0 60300 28800.00000 0 17278473.579 -4865987.712 -18102959.772 10 0 60300 29700.00000 0 15589534.666 -3231493.051 -19911915.362 10 0 60300 30600.00000 0 13896691.926 -1325693.192 -21333526.687 10 0 60300 31500.00000 0 12259208.492 819104.393 -22340190.822 10 0 60300 32400.00000 0 10730533.077 3159568.080 -22912390.635 10 0 60300 33300.00000 0 9356140.777 5642909.896 -23039069.995 10 0 60300 34200.00000 0 8171728.806 8208856.330 -22717843.321 10 0 60300 35100.00000 0 7201842.002 10791940.351 -21955035.906 10 0 60300 36000.00000 0 6458984.625 13324019.543 -20765554.758 10 0 60300 36900.00000 0 5943254.437 15736915.787 -19172592.878 10 0 60300 37800.00000 0 5642512.987 17965067.004 -17207173.039 10 0 60300 38700.00000 0 5533083.540 19948080.988 -14907540.146 10 0 60300 39600.00000 0 5580945.907 21633085.430 -12318414.135 10 0 60300 40500.00000 0 5743376.613 22976776.785 -9490118.012 10 0 60300 41400.00000 0 5970964.201 23947083.242 -6477598.065 10 0 60300 42300.00000 0 6209913.755 24524373.102 -3339355.371 10 0 60300 43200.00000 0 6404542.633 24702158.968 -136309.493 10 0 60300 44100.00000 0 6499861.495 24487269.188 3069383.488 10 0 60300 45000.00000 0 6444131.165 23899480.281 6215535.499 10 0 60300 45900.00000 0 6191287.077 22970626.606 9241130.167 10 0 60300 46800.00000 0 5703128.664 21743225.273 12087502.382 10 0 60300 47700.00000 0 4951181.078 20268674.467 14699471.003 10 0 60300 48600.00000 0 3918150.441 18605100.945 17026403.111 10 0 60300 49500.00000 0 2598910.832 16814946.848 19023189.685 10 0 60300 50400.00000 0 1000980.867 14962396.603 20651114.374 10 0 60300 51300.00000 0 -855531.127 13110750.995 21878599.212 10 0 60300 52200.00000 0 -2938512.272 11319857.465 22681813.509 10 0 60300 53100.00000 0 -5204937.631 9643703.141 23045134.648 10 0 60300 54000.00000 0 -7602426.076 8128270.182 22961452.237 10 0 60300 54900.00000 0 -10071196.433 6809742.125 22432309.850 10 0 60300 55800.00000 0 -12546344.148 5713135.360 21467881.374 10 0 60300 56700.00000 0 -14960345.300 4851412.280 20086781.997 10 0 60300 57600.00000 0 -17245685.166 4225112.766 18315716.666 10 0 60300 58500.00000 0 -19337502.892 3822519.133 16188971.955 10 0 60300 59400.00000 0 -21176142.821 3620347.532 13747760.118 10 0 60300 60300.00000 0 -22709506.346 3584936.632 11039427.060 10 0 60300 61200.00000 0 -23895106.024 3673883.554 8116538.751 10 0 60300 62100.00000 0 -24701735.716 3838057.902 5035863.226 10 0 60300 63000.00000 0 -25110686.247 4023908.567 1857267.642 10 0 60300 63900.00000 0 -25116455.031 4175965.234 -1357448.082 10 0 60300 64800.00000 0 -24726919.249 4239427.962 -4545757.945 10 0 60300 65700.00000 0 -23962964.898 4162734.167 -7645632.751 10 0 60300 66600.00000 0 -22857587.076 3899993.071 -10596754.498 10 0 60300 67500.00000 0 -21454499.365 3413183.160 -13341697.698 10 0 60300 68400.00000 0 -19806311.054 2674018.257 -15827053.771 10 0 60300 69300.00000 0 -17972349.286 1665401.871 -18004475.827 10 0 60300 70200.00000 0 -16016218.158 382407.125 -19831622.988 10 0 60300 71100.00000 0 -14003197.785 -1167260.324 -21272985.643 10 0 60300 72000.00000 0 -11997592.838 -2963336.851 -22300575.526 10 0 60300 72900.00000 0 -10060141.897 -4973610.740 -22894467.449 10 0 60300 73800.00000 0 -8245595.986 -7155042.512 -23043182.580 10 0 60300 74700.00000 0 -6600567.272 -9455349.414 -22743906.277 10 0 60300 75600.00000 0 -5161737.151 -11814988.316 -22002536.826 10 0 60300 76500.00000 0 -3954497.633 -14169454.633 -20833564.596 10 0 60300 77400.00000 0 -2992081.552 -16451801.660 -19259784.402 10 0 60300 78300.00000 0 -2275216.513 -18595275.592 -17311846.993 10 0 60300 79200.00000 0 -1792315.413 -20535956.651 -15027658.582 10 0 60300 80100.00000 0 -1520193.913 -22215296.492 -12451640.257 10 0 60300 81000.00000 0 -1425283.118 -23582446.394 -9633861.766 10 0 60300 81900.00000 0 -1465284.969 -24596279.475 -6629066.566 10 0 60300 82800.00000 0 -1591199.379 -25227022.943 -3495607.200 10 0 60300 83700.00000 0 -1749636.532 -25457432.699 -294311.803 10 0 60300 84600.00000 0 -1885315.989 -25283461.808 2912696.170 10 0 60300 85500.00000 0 -1943646.387 -24714395.440 6063201.917 10 0 60301 0.00000 0 -1873276.417 -23772447.409 9096103.305 10 0 60301 900.00000 0 -1628508.948 -22491835.118 11952593.227 10 0 60301 1800.00000 0 -1171476.296 -20917373.423 14577293.496 10 0 60301 2700.00000 0 -473984.535 -19102644.768 16919324.037 10 0 60301 3600.00000 0 481051.146 -17107823.285 18933283.092 10 0 60301 4500.00000 0 1698640.933 -14997243.089 20580121.643 10 0 60301 5400.00000 0 3171266.037 -12836811.883 21827895.544 10 0 60301 6300.00000 0 4878955.564 -10691377.022 22652381.444 10 0 60301 7200.00000 0 6789892.640 -8622153.006 23037545.107 10 0 60301 8100.00000 0 8861525.968 -6684316.637 22975853.446 10 0 60301 9000.00000 0 11042142.034 -4924869.007 22468424.336 10 0 60301 9900.00000 0 13272834.084 -3380852.542 21525011.118 10 0 60301 10800.00000 0 15489787.396 -2077996.562 20163821.628 10 0 60301 11700.00000 0 17626787.082 -1029847.244 18411174.487 10 0 60301 12600.00000 0 19617844.975 -237417.810 16300998.419 10 0 60301 13500.00000 0 21399836.852 310626.785 13874183.255 10 0 60301 14400.00000 0 22915040.264 637258.711 11177794.200 10 0 60301 15300.00000 0 24113466.853 775879.765 8264163.807 10 0 60301 16200.00000 0 24954891.218 768668.663 5189878.631 10 0 60301 17100.00000 0 25410490.650 664553.182 2014679.976 10 0 60301 18000.00000 0 25464026.149 516893.370 -1199699.839 10 0 60301 18900.00000 0 25112514.288 380974.551 -4390742.680 10 0 60301 19800.00000 0 24366360.938 311417.185 -7496367.193 10 0 60301 20700.00000 0 23248950.620 359614.420 -10456144.086 10 0 60301 21600.00000 0 21795708.409 571307.107 -13212479.590 10 0 60301 22500.00000 0 20052673.688 984400.282 -15711743.122 10 0 60301 23400.00000 0 18074645.810 1627114.834 -17905316.473 10 0 60301 24300.00000 0 15922979.778 2516553.710 -19750543.531 10 0 60301 25200.00000 0 13663124.734 3657744.381 -21211561.812 10 0 60301 26100.00000 0 11362008.755 5043198.883 -22259999.558 10 0 60301 27000.00000 0 9085379.563 6653010.856 -22875525.076 10 0 60301 27900.00000 0 6895212.341 8455486.180 -23046238.023 10 0 60301 28800.00000 0 4847292.676 10408281.356 -22768895.521 10 0 60301 29700.00000 0 2989074.903 12460002.365 -22048969.253 10 0 60301 30600.00000 0 1357904.351 14552197.519 -20900532.909 10 0 60301 31500.00000 0 -20323.531 16621661.226 -19345982.637 10 0 60301 32400.00000 0 -1132012.643 18602952.663 -17415596.222 10 0 60301 33300.00000 0 -1976190.480 20431024.360 -15146939.805 10 0 60301 34200.00000 0 -2564295.324 22043851.052 -12584133.839 10 0 60301 35100.00000 0 -2919437.131 23384949.140 -9776992.631 10 0 60301 36000.00000 0 -3075164.856 24405681.707 -6780054.283 10 0 60301 36900.00000 0 -3073793.619 25067252.889 -3651519.989 10 0 60301 37800.00000 0 -2964363.515 25342308.479 -452123.405 10 0 60301 38700.00000 0 -2800317.220 25216076.117 2756047.845 10 0 60301 39600.00000 0 -2636995.270 24686997.661 5910755.512 10 0 60301 40500.00000 0 -2529055.316 23766827.646 8950815.501 10 0 60301 41400.00000 0 -2527924.748 22480193.999 11817280.809 10 0 60301 42300.00000 0 -2679394.458 20863639.615 14454579.784 10 0 60301 43200.00000 0 -3021455.418 18964184.944 16811588.014 10 0 60301 44100.00000 0 -3582469.456 16837471.518 18842613.559 10 0 60301 45000.00000 0 -4379751.537 14545563.588 20508276.999 10 0 60301 45900.00000 0 -5418623.603 12154499.008 21776269.934 10 0 60301 46800.00000 0 -6691980.417 9731690.631 22621977.906 10 0 60301 47700.00000 0 -8180386.582 7343285.482 23028956.214 10 0 60301 48600.00000 0 -9852701.891 5051590.579 22989249.780 10 0 60301 49500.00000 0 -11667210.281 2912671.366 22503551.014 10 0 60301 50400.00000 0 -13573206.780 974221.659 21581192.428 10 0 60301 51300.00000 0 -15512977.720 -726207.221 20239973.704 10 0 60301 52200.00000 0 -17424093.012 -2162545.185 18505825.823 10 0 60301 53100.00000 0 -19241915.978 -3321054.808 16412317.848 10 0 60301 54000.00000 0 -20902226.768 -4200660.431 14000014.935 10 0 60301 54900.00000 0 -22343850.210 -4812741.585 11315698.976 10 0 60301 55800.00000 0 -23511178.160 -5180399.762 8411466.189 10 0 60301 56700.00000 0 -24356480.371 -5337229.709 5343718.542 10 0 60301 57600.00000 0 -24841906.288 -5325647.436 2172068.263 10 0 60301 58500.00000 0 -24941092.803 -5194846.017 -1041823.201 10 0 60301 59400.00000 0 -24640309.394 -4998466.273 -4235448.844 10 0 60301 60300.00000 0 -23939091.421 -4792081.737 -7346678.348 10 0 60301 61200.00000 0 -22850334.058 -4630605.434 -10314974.250 10 0 60301 62100.00000 0 -21399842.127 -4565729.409 -13082577.454 10 0 60301 63000.00000 0 -19625354.275 -4643506.679 -15595638.141 10 0 60301 63900.00000 0 -17575082.225 -4902179.124 -17805269.259 10 0 60301 64800.00000 0 -15305826.382 -5370344.356 -19668501.561 10 0 60301 65700.00000 0 -12880746.844 -6065540.016 -21149121.323 10 0 60301 66600.00000 0 -10366883.353 -6993306.148 -22218374.394 10 0 60301 67500.00000 0 -7832527.976 -8146765.863 -22855523.087 10 0 60301 68400.00000 0 -5344560.217 -9506742.550 -23048245.488 10 0 60301 69300.00000 0 -2965855.576 -11042409.139 -22792869.877 10 0 60301 70200.00000 0 -752875.076 -12712442.521 -22094440.245 10 0 60301 71100.00000 0 1246464.537 -14466634.974 -20966612.126 10 0 60301 72000.00000 0 2994552.225 -16247895.256 -19431381.191 10 0 60301 72900.00000 0 4465403.632 -17994555.708 -17518650.213 10 0 60301 73800.00000 0 5645488.053 -19642888.906 -15265643.031 10 0 60301 74700.00000 0 6534028.613 -21129728.558 -12716177.104 10 0 60301 75600.00000 0 7142764.923 -22395084.999 -9919808.865 10 0 60301 76500.00000 0 7495190.004 -23384645.838 -6930868.581 10 0 60301 77400.00000 0 7625295.273 -24052057.052 -3807403.603 10 0 60301 78300.00000 0 7575877.922 -24360889.074 -610050.632 10 0 60301 79200.00000 0 7396483.312 -24286205.582 2599140.986 10 0 60301 80100.00000 0 7141070.183 -23815669.365 5757911.935 10 0 60301 81000.00000 0 6865497.971 -22950139.057 8804998.206 10 0 60301 81900.00000 0 6624942.775 -21703731.812 11681315.648 10 0 60301 82800.00000 0 6471351.318 -20103349.299 14331100.936 10 0 60301 83700.00000 0 6451040.451 -18187686.726 16702987.213 10 0 60301 84600.00000 0 6602543.429 -16005765.996 18750994.034 10 0 60301 85500.00000 0 6954793.753 -13615053.753 20435412.982 99